timestamp,wind_dir_avg,wind_spd_avg,wind_spd_max_dir,wind_spd_gust,battery_voltage,lat,long
2024-01-12 00:04:00+00:00,219.0,3.04,231.0,4.01,12.01,47.59359,-54.27349
2024-01-12 00:14:00+00:00,192.0,2.41,223.0,3.42,12.01,47.59359,-54.27349
2024-01-12 00:24:00+00:00,195.0,3.63,226.0,4.96,12.01,47.59359,-54.27349
2024-01-12 00:34:00+00:00,166.0,3.93,160.0,4.64,12.01,47.59359,-54.27349
2024-01-12 00:44:00+00:00,205.0,4.76,208.0,6.67,12.01,47.59359,-54.27349
2024-01-12 00:54:00+00:00,218.0,4.14,226.0,5.38,12.01,47.59359,-54.27349
2024-01-12 01:04:00+00:00,221.0,5.2,222.0,6.02,12.01,47.59359,-54.27349
2024-01-12 01:14:00+00:00,220.0,5.47,222.0,6.02,12.01,47.59359,-54.27349
2024-01-12 01:24:00+00:00,218.0,5.73,218.0,6.64,12.01,47.59359,-54.27349
2024-01-12 01:34:00+00:00,215.0,6.02,216.0,6.64,12.01,47.59359,-54.27349
2024-01-12 01:44:00+00:00,217.0,6.78,213.0,7.82,12.01,47.59359,-54.27349
2024-01-12 01:54:00+00:00,199.0,5.09,219.0,6.22,12.01,47.59359,-54.27349
2024-01-12 02:04:00+00:00,199.0,5.28,214.0,6.27,12.01,47.59359,-54.27349
2024-01-12 02:14:00+00:00,206.0,5.08,215.0,6.08,12.01,47.59359,-54.27349
2024-01-12 02:24:00+00:00,219.0,5.57,217.0,6.29,12.01,47.59359,-54.27349
2024-01-12 02:34:00+00:00,222.0,5.3,223.0,6.11,12.01,47.59359,-54.27349
2024-01-12 02:44:00+00:00,218.0,6.23,217.0,6.91,12.01,47.59359,-54.27349
2024-01-12 02:54:00+00:00,215.0,6.8,210.0,7.74,12.01,47.59359,-54.27349
2024-01-12 03:04:00+00:00,190.0,4.47,215.0,5.55,12.01,47.59359,-54.27349
2024-01-12 03:14:00+00:00,164.0,4.85,163.0,5.45,12.01,47.59359,-54.27349
2024-01-12 03:24:00+00:00,162.0,5.41,165.0,6.19,12.01,47.59359,-54.27349
2024-01-12 03:34:00+00:00,187.0,4.85,191.0,5.66,12.01,47.59359,-54.27349
2024-01-12 03:44:00+00:00,190.0,3.75,171.0,4.31,12.01,47.59359,-54.27349
2024-01-12 03:54:00+00:00,168.0,4.33,165.0,5.18,12.01,47.59359,-54.27349
2024-01-12 04:04:00+00:00,197.0,4.44,196.0,5.07,12.01,47.59359,-54.27349
2024-01-12 04:14:00+00:00,194.0,4.31,197.0,5.22,11.93,47.59359,-54.27349
2024-01-12 04:24:00+00:00,212.0,4.33,222.0,5.83,11.93,47.59359,-54.27349
2024-01-12 04:34:00+00:00,202.0,3.84,213.0,4.94,11.93,47.59359,-54.27349
2024-01-12 04:44:00+00:00,194.0,3.84,193.0,4.22,11.93,47.59359,-54.27349
2024-01-12 04:54:00+00:00,173.0,3.05,174.0,3.6,11.93,47.59359,-54.27349
2024-01-12 05:04:00+00:00,167.0,3.2,172.0,4.13,11.93,47.59359,-54.27349
2024-01-12 05:14:00+00:00,206.0,2.27,225.0,3.34,11.93,47.59359,-54.27349
2024-01-12 05:24:00+00:00,164.0,2.5,167.0,2.87,11.93,47.59359,-54.27349
2024-01-12 05:34:00+00:00,171.0,4.43,172.0,4.86,11.93,47.59359,-54.27349
2024-01-12 05:44:00+00:00,176.0,5.3,176.0,6.15,11.93,47.59359,-54.27349
2024-01-12 05:54:00+00:00,180.0,6.22,181.0,6.72,11.93,47.59359,-54.27349
2024-01-12 06:04:00+00:00,179.0,5.99,183.0,6.72,11.93,47.59359,-54.27349
2024-01-12 06:14:01+00:00,180.0,5.32,184.0,6.17,11.93,47.59359,-54.27349
2024-01-12 06:24:01+00:00,168.0,7.17,164.0,7.68,11.93,47.59359,-54.27349
2024-01-12 06:34:01+00:00,206.0,10.18,204.0,11.16,11.93,47.59359,-54.27349
2024-01-12 06:44:01+00:00,196.0,8.09,201.0,8.94,11.93,47.59359,-54.27349
2024-01-12 06:54:01+00:00,211.0,8.13,205.0,9.09,11.93,47.59359,-54.27349
2024-01-12 07:04:01+00:00,216.0,7.66,220.0,8.83,11.93,47.59359,-54.27349
2024-01-12 07:14:00+00:00,217.0,7.28,228.0,8.95,11.93,47.59359,-54.27349
2024-01-12 07:24:00+00:00,211.0,6.83,205.0,7.89,11.93,47.59359,-54.27349
2024-01-12 07:34:00+00:00,212.0,6.0,214.0,6.75,11.93,47.59359,-54.27349
2024-01-12 07:44:00+00:00,213.0,5.38,212.0,6.44,11.93,47.59359,-54.27349
2024-01-12 07:54:00+00:00,212.0,5.29,217.0,6.19,11.93,47.59359,-54.27349
2024-01-12 08:04:00+00:00,221.0,5.88,221.0,6.43,11.93,47.59359,-54.27349
2024-01-12 08:14:00+00:00,212.0,8.49,211.0,9.95,11.93,47.59359,-54.27349
2024-01-12 08:24:00+00:00,208.0,7.71,208.0,8.29,11.93,47.59359,-54.27349
2024-01-12 08:34:00+00:00,186.0,6.57,201.0,7.13,11.93,47.59359,-54.27349
2024-01-12 08:44:00+00:00,210.0,5.62,211.0,6.37,11.93,47.59359,-54.27349
2024-01-12 08:54:00+00:00,215.0,5.68,216.0,6.37,11.93,47.59359,-54.27349
2024-01-12 09:04:00+00:00,221.0,5.25,218.0,5.68,11.93,47.59359,-54.27349
2024-01-12 09:14:00+00:00,211.0,4.1,218.0,4.7,11.93,47.59359,-54.27349
2024-01-12 09:24:00+00:00,182.0,3.08,182.0,3.4,11.93,47.59359,-54.27349
2024-01-12 09:34:00+00:00,180.0,3.19,179.0,3.53,11.93,47.59359,-54.27349
2024-01-12 09:44:00+00:00,219.0,3.43,224.0,3.78,11.93,47.59359,-54.27349
2024-01-12 09:54:00+00:00,200.0,3.39,219.0,4.26,11.93,47.59359,-54.27349
2024-01-12 10:04:00+00:00,216.0,4.65,228.0,5.26,11.93,47.59359,-54.27349
2024-01-12 10:14:00+00:00,215.0,5.49,212.0,6.51,11.93,47.59359,-54.27349
2024-01-12 10:24:00+00:00,212.0,7.41,212.0,8.94,11.93,47.59359,-54.27349
2024-01-12 10:34:00+00:00,213.0,7.15,209.0,7.86,11.93,47.59359,-54.27349
2024-01-12 10:44:00+00:00,213.0,6.96,206.0,7.89,11.93,47.59359,-54.27349
2024-01-12 10:54:00+00:00,204.0,6.39,204.0,7.21,11.93,47.59359,-54.27349
2024-01-12 11:04:00+00:00,211.0,6.01,211.0,6.64,11.93,47.59359,-54.27349
2024-01-12 11:14:00+00:00,208.0,6.63,205.0,7.88,11.93,47.59359,-54.27349
2024-01-12 11:24:00+00:00,202.0,6.13,206.0,6.96,11.93,47.59359,-54.27349
2024-01-12 11:34:00+00:00,196.0,6.28,195.0,7.12,11.93,47.59359,-54.27349
2024-01-12 11:44:00+00:00,200.0,5.86,201.0,6.51,11.93,47.59359,-54.27349
2024-01-12 11:54:00+00:00,205.0,6.3,208.0,6.94,11.93,47.59359,-54.27349
2024-01-12 12:04:00+00:00,211.0,6.27,211.0,7.3,11.93,47.59359,-54.27349
2024-01-12 12:14:00+00:00,207.0,6.64,209.0,7.88,11.93,47.59359,-54.27349
2024-01-12 12:24:00+00:00,206.0,7.03,209.0,8.12,11.93,47.59359,-54.27349
2024-01-12 12:34:00+00:00,208.0,8.27,210.0,9.26,11.93,47.59359,-54.27349
2024-01-12 12:44:00+00:00,212.0,7.53,210.0,8.54,11.93,47.59359,-54.27349
2024-01-12 12:54:00+00:00,212.0,7.34,212.0,8.44,11.93,47.59359,-54.27349
2024-01-12 13:04:00+00:00,216.0,6.03,216.0,6.89,11.93,47.59359,-54.27349
2024-01-12 13:14:00+00:00,213.0,7.83,217.0,8.77,12.09,47.59359,-54.27349
2024-01-12 13:24:00+00:00,214.0,8.2,220.0,9.64,12.09,47.59359,-54.27349
2024-01-12 13:34:00+00:00,209.0,8.28,216.0,9.37,12.09,47.59359,-54.27349
2024-01-12 13:44:00+00:00,211.0,7.45,209.0,8.49,12.09,47.59359,-54.27349
2024-01-12 13:54:00+00:00,212.0,8.59,222.0,10.51,12.09,47.59359,-54.27349
2024-01-12 14:04:00+00:00,209.0,8.14,208.0,9.04,12.09,47.59359,-54.27349
2024-01-12 14:14:01+00:00,220.0,7.47,217.0,9.43,12.57,47.59359,-54.27349
2024-01-12 14:24:01+00:00,225.0,6.78,231.0,7.89,12.57,47.59359,-54.27349
2024-01-12 14:34:01+00:00,212.0,7.66,217.0,9.3,12.57,47.59359,-54.27349
2024-01-12 14:44:01+00:00,216.0,9.28,219.0,10.55,12.57,47.59359,-54.27349
2024-01-12 14:54:01+00:00,211.0,8.01,209.0,8.69,12.57,47.59359,-54.27349
2024-01-12 15:04:01+00:00,209.0,8.95,202.0,10.2,12.57,47.59359,-54.27349
2024-01-12 15:14:00+00:00,214.0,8.86,216.0,10.17,13.6,47.59359,-54.27349
2024-01-12 15:24:00+00:00,211.0,8.97,217.0,10.56,13.6,47.59359,-54.27349
2024-01-12 15:34:00+00:00,211.0,8.5,213.0,9.67,13.6,47.59359,-54.27349
2024-01-12 15:44:00+00:00,210.0,8.77,215.0,9.69,13.6,47.59359,-54.27349
2024-01-12 15:54:00+00:00,208.0,9.13,212.0,10.89,13.6,47.59359,-54.27349
2024-01-12 16:04:00+00:00,210.0,9.18,214.0,11.13,13.6,47.59359,-54.27349
2024-01-12 16:14:00+00:00,212.0,9.49,215.0,10.92,12.89,47.59359,-54.27349
2024-01-12 16:24:00+00:00,215.0,9.31,219.0,10.61,12.89,47.59359,-54.27349
2024-01-12 16:34:00+00:00,211.0,9.44,209.0,10.39,12.89,47.59359,-54.27349
2024-01-12 16:44:00+00:00,213.0,9.33,214.0,10.17,12.89,47.59359,-54.27349
2024-01-12 16:54:00+00:00,214.0,10.02,214.0,11.48,12.89,47.59359,-54.27349
2024-01-12 17:04:00+00:00,213.0,9.04,219.0,10.33,12.89,47.59359,-54.27349
2024-01-12 17:14:00+00:00,215.0,9.2,221.0,10.58,12.97,47.59359,-54.27349
2024-01-12 17:24:00+00:00,213.0,9.24,221.0,10.81,12.97,47.59359,-54.27349
2024-01-12 17:34:00+00:00,217.0,9.06,219.0,10.39,12.97,47.59359,-54.27349
2024-01-12 17:44:00+00:00,233.0,8.65,235.0,10.06,12.97,47.59359,-54.27349
2024-01-12 17:54:00+00:00,241.0,9.2,243.0,10.38,12.97,47.59359,-54.27349
2024-01-12 18:04:00+00:00,264.0,9.95,264.0,11.27,12.97,47.59359,-54.27349
